Location: Wanzleben
(52.0609°N, 11.4408°E)
Time: 00:57:00
(UTC+00:00)

Spot 2 Rocket - Pass Details

Date: 18 September 2020
Orbit: 758 x 771 km, 98.6° (Epoch: 23 October)

Event Time Altitude Azimuth Distance (km) Brightness Sun altitude
Exits shadow 19:48:07 51° 104° (ESE) 949 3.6 -22.0°
Maximum altitude 19:48:52 57° 68° (ENE) 892 3.6 -22.1°
Drops below altitude 10° 19:53:49 10° 351° (N) 2,301 6.5 -22.8°
Sets 19:56:09 0° 348° (NNW) 3,231 7.5 -23.0°
